Tracking 31011 objects as of 13-Jul-2025
HD Live streaming from Space Station
objects crossing your sky now

CZ-6A DEB

Track CZ-6A DEB now!
10-day predictions


NORAD ID: 55187
Int'l Code: 2022-151VC
Perigee: 758.2 km
Apogee: 853.4 km
Inclination: 98.8 °
Period: 100.8 minutes
Semi major axis: 7176 km
RCS: Unknown
Launch date: November 11, 2022
Source: People's Republic of China (PRC)
Launch site: Taiyaun Space Center, China (TSC)

Note: This is SATELLITE DEBRIS
Your satellite tracking list
Your tracking list is empty




NASA's NSSDC Master Catalog

Two Line Element Set (TLE):
1 55187U 22151VC  25193.95936232  .00004270  00000-0  17007-2 0  9996
2 55187  98.8136 207.0099 0066284 233.9355 125.5674 14.27934837135104
Source of the keplerian elements: AFSPC